Location: Unspecified
(0.0000°N, 0.0000°E)
Time: 13:05:23
(UTC+01:00)

Coronas F rocket - Visible Passes

Search period start: 12 February 2016 00:00
Search period end: 22 February 2016 00:00
Orbit: 341 x 350 km, 82.5° (Epoch: 11 February)

Date Brightness Start Highest point End Pass type
(mag) Time Alt. Az. Time Alt. Az. Time Alt. Az.
13 Feb 4.8 06:42:53 10° NE 06:44:27 14° E 06:46:01 10° ESE visible
13 Feb 4.3 19:40:17 10° SW 19:42:33 22° W 19:44:49 10° NNW visible
16 Feb 4.6 06:23:02 10° NE 06:25:00 17° E 06:26:58 10° SE visible
17 Feb 1.3 06:46:13 10° N 06:49:02 87° W 06:51:52 10° S visible
19 Feb 4.2 06:02:51 10° NNE 06:05:04 21° E 06:07:18 10° SE visible
20 Feb 1.3 06:26:10 10° N 06:28:57 66° W 06:31:45 10° S visible
